Weather History for Lubbock, TX

Change the Weather History Date:

Tuesday, February 12, 2013

  Actual Average Record
Temperature  
Mean Temperature 35 °F 44 °F  
Max Temperature 41 °F 58 °F 86 °F (1962)
Min Temperature 29 °F 29 °F 9 °F (1948)
Degree Days  
Heating Degree Days 30 21  
Month to date heating degree days 216 267  
Since 1 July heating degree days 2152 2432  
Cooling Degree Days 0 0  
Month to date cooling degree days 0 0  
Year to date cooling degree days 0 0  
Moisture  
Dew Point 32 °F    
Average Humidity 80    
Maximum Humidity 100    
Minimum Humidity 59    
Precipitation  
Precipitation 0.48 in 0.02 in 0.48 in (1928)
Month to date precipitation 0.48 0.32  
Year to date precipitation 1.40 0.97  
Snow  
Snow T in 0.10 in - ()
Month to date snowfall T 0.9  
Since 1 July snowfall 0.3 6.7  
Snow Depth 0.00 in    
Sea Level Pressure  
Sea Level Pressure 29.95 in    
Wind  
Wind Speed 12 mph (NNE)    
Max Wind Speed 24 mph    
Max Gust Speed 30 mph    
Visibility 7 miles    
Events Rain , Snow , Thunderstorm    
T = Trace of Precipitation, MM = Missing Value Source: NWS Daily Summary

Daily Weather History Graph

Daily Weather History Graph

Search for Another Location

Airport:

Trip Planner

Search our weather history database for the weather conditions in past years. The results will help you decide how hot, cold, wet, or windy it might be!

Date:

Astronomy

Feb. 12, 2013 Rise Set
Actual Time 7:34 AM CST 6:29 PM CST
Civil Twilight 7:08 AM CST 6:54 PM CST
Nautical Twilight 6:39 AM CST 7:24 PM CST
Astronomical Twilight 6:10 AM CST 7:53 PM CST
Moon 8:42 AM CST (2/12) 9:20 PM CST (2/12)
Length of Visible Light 11h 46m
Length of Day
10h 55m
Waxing Crescent, 7% of the Moon is Illuminated
Feb 12
Waxing Crescent
Feb 17
First Quarter
Feb 25
Full
Mar 4
Last Quarter
Mar 11
New

Hourly Weather History & Observations

Time (CST) Temp. Windchill Dew Point Humidity Pressure Visibility Wind Dir Wind Speed Gust Speed Precip Events Conditions
12:11 AM 39.2 °F 31.6 °F 26.6 °F 61% 29.91 in 10.0 mi East 12.7 mph - N/A   Mostly Cloudy
12:53 AM 39.9 °F 32.9 °F 28.0 °F 63% 29.89 in 10.0 mi ESE 11.5 mph - N/A   Overcast
1:22 AM 39.2 °F 30.5 °F 30.2 °F 70% 29.89 in 10.0 mi ESE 16.1 mph - N/A   Scattered Clouds
1:53 AM 39.0 °F 31.4 °F 30.0 °F 70% 29.86 in 10.0 mi ESE 12.7 mph - N/A   Partly Cloudy
2:50 AM 37.4 °F 30.3 °F 33.8 °F 87% 29.87 in 10.0 mi ESE 10.4 mph - N/A   Mostly Cloudy
2:53 AM 37.9 °F 30.9 °F 33.1 °F 83% 29.83 in 10.0 mi East 10.4 mph - N/A   Mostly Cloudy
3:05 AM 37.4 °F 30.8 °F 33.8 °F 87% 29.86 in 10.0 mi East 9.2 mph - N/A Thunderstorm Thunderstorm
3:24 AM 39.2 °F 31.2 °F 33.8 °F 81% 29.90 in 10.0 mi West 13.8 mph 19.6 mph N/A   Overcast
3:32 AM 39.2 °F 32.5 °F 33.8 °F 81% 29.91 in 10.0 mi WNW 10.4 mph 20.7 mph 0.00 in Rain Light Rain
3:40 AM 39.2 °F 31.6 °F 35.6 °F 87% 29.93 in 7.0 mi West 12.7 mph - 0.00 in Rain , Thunderstorm Thunderstorms with Small Hail
3:53 AM 37.0 °F 31.6 °F 35.1 °F 93% 29.86 in 1.8 mi North 6.9 mph - 0.07 in Rain , Thunderstorm Heavy Thunderstorms with Small Hail
4:08 AM 35.6 °F 31.7 °F 33.8 °F 93% 29.89 in 2.5 mi ENE 4.6 mph - 0.12 in Rain , Thunderstorm Heavy Thunderstorms with Small Hail
4:23 AM 35.6 °F 29.9 °F 33.8 °F 93% 29.89 in 3.0 mi ENE 6.9 mph - 0.20 in Rain , Thunderstorm Thunderstorms and Rain
4:44 AM 35.6 °F 30.7 °F 33.8 °F 93% 29.90 in 1.8 mi North 5.8 mph - 0.27 in Rain , Thunderstorm Heavy Thunderstorms and Rain
4:53 AM 34.0 °F 28.0 °F 34.0 °F 100% 29.88 in 1.5 mi NW 6.9 mph - 0.30 in Rain , Thunderstorm Heavy Thunderstorms with Small Hail
5:09 AM 35.6 °F - 33.8 °F 93% 29.91 in 1.5 mi Calm Calm - 0.04 in Rain , Thunderstorm Thunderstorms with Small Hail
5:12 AM 35.6 °F - 35.6 °F 100% 29.91 in 1.5 mi Calm Calm - 0.05 in Rain , Thunderstorm Thunderstorms and Rain
5:30 AM 35.6 °F 30.7 °F 33.8 °F 93% 29.89 in 2.0 mi ENE 5.8 mph - 0.09 in Rain Light Rain
5:39 AM 35.6 °F 29.2 °F 35.6 °F 100% 29.88 in 3.0 mi East 8.1 mph - 0.10 in Rain Light Rain
5:53 AM 35.1 °F 27.9 °F 35.1 °F 100% 29.86 in 5.0 mi ENE 9.2 mph - 0.10 in   Overcast
6:22 AM 33.8 °F 25.3 °F 33.8 °F 100% 29.90 in 6.0 mi NNE 11.5 mph - N/A   Overcast
6:53 AM 34.0 °F 24.2 °F 33.1 °F 96% 29.89 in 7.0 mi NNE 15.0 mph - 0.00 in   Overcast
7:46 AM 32.0 °F 21.6 °F 30.2 °F 93% 29.92 in 10.0 mi NNE 15.0 mph - N/A   Overcast
7:53 AM 32.0 °F 21.6 °F 30.9 °F 96% 29.92 in 10.0 mi NNE 15.0 mph - N/A   Overcast
8:53 AM 33.1 °F 23.9 °F 32.0 °F 96% 29.92 in 6.0 mi NE 12.7 mph - N/A   Overcast
9:41 AM 33.8 °F 25.8 °F 33.8 °F 100% 29.94 in 2.5 mi NE 10.4 mph - 0.00 in Rain Light Rain
9:49 AM 33.8 °F 25.8 °F 33.8 °F 100% 29.94 in 3.0 mi NE 10.4 mph - 0.00 in   Overcast
9:53 AM 34.0 °F 26.0 °F 33.1 °F 96% 29.95 in 3.0 mi NE 10.4 mph - 0.00 in   Overcast
10:09 AM 33.8 °F 27.7 °F 33.8 °F 100% 29.95 in 1.8 mi NE 6.9 mph - 0.00 in Rain Light Rain
10:14 AM 33.8 °F 27.7 °F 32.0 °F 93% 29.95 in 0.8 mi NNE 6.9 mph - 0.00 in Snow Light Snow
10:53 AM 34.0 °F 28.0 °F 33.1 °F 96% 29.96 in 5.0 mi NNE 6.9 mph - 0.01 in Snow Light Snow
11:30 AM 33.8 °F 27.0 °F 32.0 °F 93% 29.97 in 7.0 mi North 8.1 mph - 0.00 in Snow Light Snow
11:53 AM 34.0 °F 25.5 °F 32.0 °F 92% 29.98 in 10.0 mi NNW 11.5 mph - 0.00 in   Overcast
12:48 PM 33.8 °F 23.2 °F 30.2 °F 87% 29.98 in 6.0 mi North 17.3 mph - N/A   Overcast
12:53 PM 34.0 °F 23.8 °F 30.9 °F 89% 29.98 in 7.0 mi North 16.1 mph - N/A   Overcast
1:22 PM 35.6 °F 26.2 °F 30.2 °F 81% 29.97 in 9.0 mi North 15.0 mph - 0.00 in   Overcast
1:35 PM 35.6 °F 26.2 °F 30.2 °F 81% 29.98 in 10.0 mi North 15.0 mph - 0.00 in   Overcast
1:53 PM 35.1 °F 23.8 °F 30.9 °F 85% 29.97 in 10.0 mi NNW 20.7 mph 26.5 mph 0.00 in   Overcast
2:30 PM 35.6 °F 24.0 °F 30.2 °F 81% 29.96 in 10.0 mi NNW 23.0 mph 27.6 mph N/A   Overcast
2:53 PM 37.0 °F 25.9 °F 30.9 °F 79% 29.97 in 10.0 mi North 23.0 mph 28.8 mph N/A   Overcast
3:53 PM 37.0 °F 26.4 °F 30.9 °F 79% 29.99 in 10.0 mi North 20.7 mph 28.8 mph N/A   Overcast
4:35 PM 37.4 °F 27.8 °F 30.2 °F 75% 30.00 in 10.0 mi North 17.3 mph 25.3 mph N/A   Scattered Clouds
4:49 PM 37.4 °F 27.2 °F 30.2 °F 75% 30.00 in 10.0 mi North 19.6 mph - N/A   Mostly Cloudy
4:53 PM 39.0 °F 29.0 °F 30.9 °F 73% 30.01 in 10.0 mi North 20.7 mph - N/A   Mostly Cloudy
5:42 PM 39.2 °F 30.8 °F 30.2 °F 70% 30.01 in 10.0 mi North 15.0 mph 21.9 mph N/A   Scattered Clouds
5:53 PM 37.9 °F 29.2 °F 30.0 °F 73% 30.02 in 10.0 mi North 15.0 mph - N/A   Scattered Clouds
6:53 PM 35.1 °F 29.3 °F 30.0 °F 82% 30.06 in 10.0 mi North 6.9 mph - N/A   Partly Cloudy
7:53 PM 33.1 °F 26.9 °F 30.0 °F 89% 30.09 in 10.0 mi NW 6.9 mph - N/A   Clear
8:53 PM 32.0 °F 24.2 °F 30.0 °F 92% 30.11 in 10.0 mi NW 9.2 mph - N/A   Clear
9:53 PM 30.9 °F 24.3 °F 28.9 °F 92% 30.10 in 10.0 mi North 6.9 mph - N/A   Clear
10:53 PM 30.0 °F 24.1 °F 28.9 °F 96% 30.13 in 8.0 mi WNW 5.8 mph - N/A   Clear
11:53 PM 28.9 °F - 28.0 °F 96% 30.12 in 7.0 mi Calm Calm - N/A   Clear